Miscellaneous Hydrologic Data Report
Issued by NWS (Baltimore/Washington) Sterling, VA
1 of 28 available versions  First Miscellaneous Hydrologic Data Report Previous Miscellaneous Hydrologic Data Report  Print this page Close this Window


000
ASUS41 KLWX 250210
RWRLWX

REGIONAL WEATHER ROUNDUP
NATIONAL WEATHER SERVICE BALTIMORE MD/WASHINGTON DC
1000 PM EDT THU APR 24 2014

Note: "FAIR" indicates few or no clouds below 12,000 feet
with no significant weather and/or obstructions to visibility.
 TC=TEMPERATURE CELSIUS

 * =Non NWS site. Station does not report precipitation (e.g. rain,
    snow, etc.), thunder, or fog.

DCZ001-MDZ009-015-VAZ040>042-051-053>054-250300-
WASHINGTON METRO

CITY           SKY/WX    TMP DP  RH WIND       PRES   REMARKS
WASHINGTON NAT MOCLDY    57  33  40 CALM      30.04R
DULLES         MOCLDY    47  31  53 SE3       30.03R
ANDREWS AFB    CLEAR     49  28  42 CALM      30.03S
FT BELVOIR     PTCLDY    48  31  50 CALM      30.04R
QUANTICO       PTCLDY    53  36  52 NW6       30.04R
COLLEGE PARK*  PTCLDY    50  32  50 CALM      30.03S
LEESBURG*      PTCLDY    50  36  57 CALM      30.03S
MANASSAS*      PTCLDY    48  37  66 CALM      30.03S
GAITHERSBURG*  PTCLDY    48  25  40 CALM      30.06R

$$

MDZ006>007-011-014-250300-
BALTIMORE METRO

CITY           SKY/WX    TMP DP  RH WIND       PRES   REMARKS
BWI AIRPORT    PTCLDY    50  26  39 CALM      30.03R
MD SCIENCE CTR   N/A     58  26  29 MISG      30.03R
MARTIN STATE   PTCLDY    54  32  43 CALM      30.04R
ANNAPOLIS      CLEAR     52  33  48 CALM      30.03R
FORT MEADE*    CLEAR     43  30  61 CALM      30.06R

$$

MDZ012-015-019>023-250300-
MARYLAND EASTERN SHORE

CITY           SKY/WX    TMP DP  RH WIND       PRES   REMARKS
OCEAN CITY     CLEAR     42  32  67 W5        30.04R
SALISBURY      CLEAR     48  30  49 SW3       30.05R
BAY BRIDGE AP* CLEAR     50  34  53 CALM      30.04R
CAMBRIDGE*     CLEAR     46  34  61 CALM      30.04R

$$

MDZ017>025-250300-
SOUTHERN MARYLAND

CITY           SKY/WX    TMP DP  RH WIND       PRES   REMARKS
PATUXENT RIVER PTCLDY    42  35  76 CALM      30.04R
ST INIGOES     PTCLDY    46  35  65 CALM      30.04R
LEONARDTOWN*   PTCLDY    48  32  53 CALM      30.06R

$$

MDZ003>005-250300-
NORTH CENTRAL MARYLAND

CITY           SKY/WX    TMP DP  RH WIND       PRES   REMARKS
FREDERICK*     PTCLDY    46  37  71 CALM      30.05S
HAGERSTOWN APT PTCLDY    55  19  24 SE7       30.01R
WESTMINSTER*   PTCLDY    52  25  35 CALM      30.02S

$$

MDZ501>502-250300-
WESTERN MARYLAND

CITY           SKY/WX    TMP DP  RH WIND       PRES   REMARKS
OAKLAND*       CLOUDY    46   3  17 SE9       29.99F
CUMBERLAND*    CLOUDY    55  21  26 NW3       30.04R

$$

VAZ025>031-250300-
SHENANDOAH VALLEY

CITY           SKY/WX    TMP DP  RH WIND       PRES   REMARKS
WINCHESTER*    CLOUDY    50  28  43 CALM      30.02S
STAUNTON*      MOCLDY    48  35  60 CALM      30.01F

$$

WVZ021-048>050-054>055-250300-
EASTERN WEST VIRGINIA PANHANDLE

CITY           SKY/WX    TMP DP  RH WIND       PRES   REMARKS
MARTINSBURG    MOCLDY    53  22  29 CALM      30.02R
PETERSBURG*    MOCLDY    54  40  59 CALM      30.00S

$$

VAZ036>039-050-250300-
CENTRAL FOOTHILLS

CITY           SKY/WX    TMP DP  RH WIND       PRES   REMARKS
CHARLOTTESVILL PTCLDY    54  27  35 N3        30.01R
CULPEPER*      MOCLDY    50  34  53 CALM      30.04R

$$

VAZ055>057-250300-
NORTH AND CENTRAL PIEDMONT

CITY           SKY/WX    TMP DP  RH WIND       PRES   REMARKS
FREDERICKSBRG* PTCLDY    53  30  41 CALM      30.03R
STAFFORD*      MOCLDY    50  33  51 CALM      30.07R

$$

NCZ024-NYZ072-PAZ021-071-VAZ022-071-250300-
OTHER REGIONAL OBSERVATIONS

CITY           SKY/WX    TMP DP  RH WIND       PRES   REMARKS
NEW YORK CITY  CLEAR     55  11  17 NW9G18    30.01R
PHILADELPHIA   PTCLDY    57  10  15 NW7       30.03R
PITTSBURGH     MOCLDY    53  19  26 E5        29.97F
ROANOKE        MOCLDY    61  33  35 E10       30.00S
RICHMOND       MOCLDY    54  30  40 CALM      30.03R
RALEIGH        MOCLDY    60  38  43 SE3       30.02S

$$

ANZ530>537-250300-
MARINE OBSERVATIONS

STATION/POSITION TIME  TEMP    WIND        PRES
                       AIR SEA DIR/SP/G
                 (UTC) (F)     (DEG/KT/KT) (MB)
THOMAS PT LIGHT  0200   55 54  200/  7/  7 1017.6R
BALT KEY BRIDGE  0200   58        CALM     1016.8R
COVE POINT       0200   55     200/  5/  5 1017.1R
LEWISETTA        0200   55 57  190/  3/  3 1017.1R
SOLOMONS ISLAND  0200      56                N/A
PINEY POINT      0200          130/  4/  5   N/A

$$


Close this window


The National Weather Service prepares its forecasts and other services in collaboration with agencies like the US Geological Survey, US Bureau of Reclamation, US Army Corps of Engineers, Natural Resource Conservation Service, National Park Service, ALERT Users Group, Bureau of Indian Affairs, and many state and local emergency managers across the country. For details, please click here.

National Weather Service
(Baltimore/Washington) Sterling Weather Forecast Office
43858 Weather Service Rd.
Sterling, VA 20166
(703) 996-2200
Ask Questions/Webmaster
Page last modified: 1-Jan-1970 12:00 AM
Disclaimer
Credits
Glossary
Privacy Policy
About Us
Career Opportunities